EW7502 Weather Reports


time (UTC)temp
F
wind
direction
speed
knots
gust
knots
rain 1hr
in
rain 24hr
in
rain mn
in
humidity
%
barometer
mb
20260506191520 63 187 0.0 0.0 0.00 0.05 0.05 86 1006.8
20260506190019 63 205 0.0 0.0 0.00 0.05 0.05 84 1006.8
20260506184524 63 238 0.0 0.0 0.01 0.05 0.05 85 1006.8
20260506183018 63 211 0.0 0.0 0.01 0.05 0.05 86 1006.7
20260506181517 64 219 0.0 0.0 0.01 0.05 0.05 85 1007.0
20260506180017 64 178 0.0 0.0 0.01 0.05 0.05 84 1007.0
20260506174516 65 215 0.0 0.0 0.00 0.04 0.04 85 1007.2
20260506173016 65 208 0.0 0.0 0.00 0.04 0.04 85 1007.1
20260506171515 65 158 0.0 0.0 0.01 0.04 0.04 87 1006.8
20260506170013 65 194 0.0 0.0 0.02 0.04 0.04 88 1007.1
20260506164510 64 209 0.0 0.0 0.03 0.04 0.04 87 1007.5
20260506163008 64 220 0.0 0.0 0.04 0.04 0.04 85 1008.2
20260506161506 64 222 0.0 0.0 0.03 0.03 0.03 83 1008.5
20260506160004 64 219 0.0 0.0 0.02 0.02 0.02 80 1008.7
20260506154503 66 236 0.0 0.0 0.01 0.01 0.01 75 1008.8
20260506153002 67 273 0.0 0.0 0.00 0.00 0.00 73 1008.4
20260506151502 67 206 0.0 0.0 0.00 0.00 0.00 72 1008.6
20260506150106 68 209 0.0 0.0 0.00 0.00 0.00 69 1008.5
20260506144612 68 153 0.0 0.0 0.00 0.00 0.00 68 1008.7
20260506143059 69 232 0.0 0.0 0.00 0.00 0.00 67 1008.6
20260506141557 68 178 0.0 0.0 0.00 0.00 0.00 67 1008.8
20260506140107 68 232 0.0 0.0 0.00 0.00 0.00 69 1008.6
20260506134553 67 178 0.0 0.0 0.00 0.00 0.00 70 1008.7
20260506133116 68 181 0.0 0.0 0.00 0.00 0.00 69 1008.6
20260506131551 68 209 0.0 0.0 0.00 0.00 0.00 69 1008.8
20260506130131 67 225 0.0 0.0 0.00 0.00 0.00 71 1008.6
20260506124551 66 238 0.0 0.0 0.00 0.00 0.00 72 1008.7
20260506123048 66 185 0.0 0.0 0.00 0.00 0.00 73 1008.6
20260506121552 65 219 0.0 0.0 0.00 0.00 0.00 74 1008.9
20260506120044 65 220 0.0 0.0 0.00 0.00 0.00 74 1008.9
20260506114543 65 229 0.0 0.0 0.00 0.00 0.00 74 1008.9
20260506113049 65 204 0.0 0.0 0.00 0.00 0.00 75 1009.2
20260506111542 64 170 0.0 0.0 0.00 0.00 0.00 77 1009.0
20260506110043 63 222 0.0 0.0 0.00 0.00 0.00 78 1008.9
20260506104539 62 183 0.0 0.0 0.00 0.00 0.00 80 1008.8
20260506103037 62 225 0.0 0.0 0.00 0.00 0.00 80 1008.8
20260506101535 62 197 0.0 0.0 0.00 0.00 0.00 80 1008.9
20260506100034 62 229 0.0 0.0 0.00 0.00 0.00 80 1008.7
20260506094531 62 202 0.0 0.0 0.00 0.00 0.00 80 1008.6
20260506093034 63 204 0.0 0.0 0.00 0.00 0.00 80 1008.6
20260506091528 63 164 0.0 0.0 0.00 0.00 0.00 80 1008.7
20260506090036 63 182 0.0 0.0 0.00 0.00 0.00 80 1008.8
20260506084532 63 214 0.0 0.0 0.00 0.00 0.00 80 1008.8
20260506083030 63 196 0.0 0.0 0.00 0.00 0.00 79 1008.9
20260506081521 63 179 0.0 0.0 0.00 0.00 0.00 78 1009.0
20260506073018 64 197 0.0 0.0 0.00 0.00 0.00 77 1008.9
20260506071518 64 172 0.0 0.0 0.00 0.00 0.00 77 1009.0
20260506061509 65 218 0.0 0.0 0.00 0.00 0.00 73 1009.3
20260506050105 66 225 0.0 0.0 0.00 0.00 0.00 69 1009.9
20260506044558 66 199 0.0 0.0 0.00 0.00 0.00 68 1009.9
20260506043100 67 202 0.0 0.0 0.00 0.00 0.00 67 1010.0
20260506041553 67 232 0.0 0.0 0.00 0.00 0.00 67 1009.9
20260506040054 67 189 0.0 0.0 0.00 0.00 0.00 66 1009.9
20260506034610 68 158 0.0 0.0 0.00 0.00 0.00 65 1009.8
20260506033049 68 175 0.0 0.0 0.00 0.00 0.00 64 1009.8
20260506031552 68 188 0.0 0.0 0.00 0.00 0.00 63 1009.8
20260506030048 68 192 0.0 0.0 0.00 0.00 0.00 62 1009.8
20260506024552 69 153 0.0 0.0 0.00 0.00 0.00 61 1009.8
20260506023055 69 234 0.0 0.0 0.00 0.00 0.00 60 1009.9
20260506021547 69 150 0.0 0.0 0.00 0.00 0.00 60 1009.8
20260506020047 70 175 0.0 0.0 0.00 0.00 0.00 60 1009.8
20260506014546 70 226 0.0 0.0 0.00 0.00 0.00 58 1009.8
20260506013048 71 209 0.0 0.0 0.00 0.00 0.00 57 1009.6
20260506011545 71 179 0.0 0.0 0.00 0.00 0.00 55 1009.4
20260506010054 72 147 0.0 0.0 0.00 0.00 0.00 53 1009.3
20260506004543 73 170 0.0 0.0 0.00 0.00 0.00 49 1009.0
20260506003043 74 204 0.0 0.0 0.00 0.00 0.00 45 1008.8
20260506001546 75 219 0.0 0.0 0.00 0.00 0.00 44 1008.5
20260506000042 75 158 0.0 0.0 0.00 0.00 0.00 43 1008.5
20260505234541 76 159 0.0 0.0 0.00 0.00 0.00 43 1008.4
20260505233047 77 224 0.0 0.0 0.00 0.00 0.00 42 1008.2
20260505231540 77 208 0.0 0.0 0.00 0.00 0.00 40 1008.1
20260505230049 78 182 0.0 0.0 0.00 0.00 0.00 38 1007.8
20260505224543 79 206 0.0 0.0 0.00 0.00 0.00 36 1007.7
20260505223044 80 223 0.0 0.0 0.00 0.00 0.00 34 1007.6
20260505221538 80 212 0.0 0.0 0.00 0.00 0.00 34 1007.7
20260505220037 81 215 0.0 0.0 0.00 0.00 0.00 33 1007.5
20260505214537 81 197 0.0 0.0 0.00 0.00 0.00 31 1007.3
20260505213036 82 186 0.0 0.0 0.00 0.00 0.00 29 1007.3
20260505211536 82 170 0.0 0.0 0.00 0.00 0.00 30 1007.2
20260505210035 83 172 0.0 0.0 0.00 0.00 0.00 29 1007.1
20260505204535 83 204 0.0 0.0 0.00 0.00 0.00 30 1007.0
20260505203037 83 5 0.0 0.0 0.00 0.00 0.00 32 1007.0
20260505201542 83 217 0.0 0.0 0.00 0.00 0.00 33 1007.2
20260505200032 83 154 0.0 0.0 0.00 0.00 0.00 33 1007.2
20260505194532 83 177 0.0 0.0 0.00 0.00 0.00 34 1007.3
20260505193030 82 184 0.0 0.0 0.00 0.00 0.00 35 1007.5